Location: Rehoboth Beach
(38.7438°N, 75.1341°W)
Time: 02:26:50
(UTC-04:00)

Cosmos 1452 Rocket - Visible Passes

Search period start: 02 September 2015 00:00
Search period end: 12 September 2015 00:00
Orbit: 767 x 776 km, 74.1° (Epoch: 01 September)

Date Brightness Start Highest point End Pass type
(mag) Time Alt. Az. Time Alt. Az. Time Alt. Az.
02 Sep 3.5 21:18:13 10° NNW 21:23:29 64° ENE 21:24:37 50° ESE visible
02 Sep 6.0 23:02:21 10° WNW 23:04:58 14° W 23:04:58 14° W visible
03 Sep 4.1 20:42:32 10° N 20:47:26 38° ENE 20:49:41 26° ESE visible
03 Sep 5.3 22:25:09 10° NW 22:29:24 24° W 22:30:03 23° WSW visible
04 Sep 4.8 20:07:06 10° N 20:11:15 23° ENE 20:14:49 13° ESE visible
04 Sep 4.5 21:48:40 10° NNW 21:53:37 41° WSW 21:55:11 33° SW visible
05 Sep 3.7 21:12:30 10° NNW 21:17:47 71° WSW 21:20:24 30° S visible
06 Sep 3.5 20:36:34 10° NNW 20:41:52 68° ENE 20:45:42 19° SSE visible
06 Sep 6.1 22:21:01 10° WNW 22:23:28 13° W 22:25:35 10° WSW visible
07 Sep 4.0 20:00:52 10° N 20:05:49 40° ENE 20:10:47 10° SE visible
07 Sep 5.6 21:43:38 10° NW 21:47:45 23° W 21:51:30 11° SSW visible
08 Sep 4.8 21:07:05 10° NW 21:11:58 38° WSW 21:16:47 10° SSW visible
09 Sep 3.9 20:30:54 10° NNW 20:36:09 67° WSW 20:41:21 10° S visible
10 Sep 3.5 19:54:56 10° NNW 20:00:13 73° ENE 20:05:29 10° SSE visible
10 Sep 6.3 21:39:44 10° WNW 21:41:48 12° W 21:43:30 10° WSW visible
11 Sep 5.9 21:02:07 10° NW 21:06:05 21° W 21:09:52 10° SW visible
